Waarnemingen

Advertentie
Mijn weer
Salon, Frankrijk (7648): temperatuur & dauwpunt: 18.11.2017 17:00:00 - 24.11.2017 17:00:00 (CET)Salon, Frankrijk (7648): temperatuur 5cm: 18.11.2017 17:00:00 - 24.11.2017 17:00:00 (CET)Salon, Frankrijk (7648): windsnelheid & windstoten: 18.11.2017 17:00:00 - 24.11.2017 17:00:00 (CET)Salon, Frankrijk (7648): windrichting: 18.11.2017 17:00:00 - 24.11.2017 17:00:00 (CET)Salon, Frankrijk (7648): luchtdruk: 18.11.2017 17:00:00 - 24.11.2017 17:00:00 (CET)Salon, Frankrijk (7648): zicht: 18.11.2017 17:00:00 - 24.11.2017 17:00:00 (CET)Salon, Frankrijk (7648): neerslag: 18.11.2017 17:00:00 - 24.11.2017 17:00:00 (CET)
Datum & Tijd tt [°C] td [°C] tt 5cm [°C] ff [km/u] ff [kn] fx [km/u] fx [kn] dd ppp [hPa] vv [km] rr [mm]
24.11.2017 17:00:00 13,4 9,6 13,0 5 3 21 12 - 1018,5 10 0,0
24.11.2017 16:00:00 14,3 9,9 14,2 16 9 23 13 O 1018,2 10 0,0
24.11.2017 15:00:00 14,2 10,2 13,7 15 8 24 13 ONO 1018,8 10 0,0
24.11.2017 14:00:00 13,6 9,0 13,6 13 7 23 12 ONO 1019,4 10 0,0
24.11.2017 13:00:00 13,1 8,6 12,4 15 8 26 14 ONO 1019,8 45 0,0
24.11.2017 12:00:00 12,1 8,4 11,9 11 6 18 10 ONO 1020,6 10 0,0
24.11.2017 11:00:00 11,7 8,5 11,2 9 5 21 12 ONO 1021,2 10 0,0
24.11.2017 10:00:00 10,8 8,4 9,9 9 5 22 12 ONO 1021,1 10 0,0
24.11.2017 09:00:00 9,7 7,5 8,0 11 6 18 10 ONO 1021,1 10 0,0
24.11.2017 08:00:00 8,4 6,7 5,6 11 6 16 9 O 1021,0 10 0,0
24.11.2017 07:00:00 7,3 5,8 5,5 8 4 14 8 O 1020,7 10 0,0
24.11.2017 06:00:00 8,0 6,6 5,5 9 5 16 9 ONO 1020,5 10 0,0
24.11.2017 05:00:00 7,4 6,2 6,3 8 4 16 9 ONO 1020,3 10 0,0
24.11.2017 04:00:00 7,4 6,5 5,1 9 5 14 7 O 1020,8 10 0,0
24.11.2017 03:00:00 7,1 6,5 4,2 5 3 11 6 ONO 1021,0 10 0,0
24.11.2017 02:00:00 6,1 5,5 3,8 5 3 7 4 ONO 1021,1 10 0,0
24.11.2017 01:00:00 6,9 6,5 3,4 4 2 6 3 ONO 1021,0 7 0,0
24.11.2017 00:00:00 6,9 6,0 4,1 4 2 7 4 - 1021,3 7 0,2
23.11.2017 23:00:00 8,3 7,5 5,1 0 0 9 5 N 1021,0 10 0,0
23.11.2017 22:00:00 8,6 7,7 6,0 4 2 6 3 - 1021,3 8 0,0
23.11.2017 21:00:00 10,4 9,8 6,6 0 0 6 3 N 1021,4 10 0,0
23.11.2017 20:00:00 10,2 9,4 8,2 0 0 5 3 N 1020,9 10 0,0
23.11.2017 19:00:00 10,3 9,5 7,4 2 1 6 3 ONO 1020,8 10 0,0
23.11.2017 18:00:00 12,1 9,1 8,7 0 0 10 5 N 1020,0 10 0,0
23.11.2017 17:00:00 15,0 11,0 14,1 8 4 16 8 Z 1019,5 10 0,0
23.11.2017 16:00:00 16,5 10,3 18,3 13 7 24 13 ZZO 1019,3 10 0,0
23.11.2017 15:00:00 16,9 11,2 18,5 9 5 21 11 Z 1019,4 10 0,0
23.11.2017 14:00:00 16,7 11,0 18,7 9 5 25 13 Z 1019,4 10 0,0
23.11.2017 13:00:00 17,0 10,1 19,0 13 7 21 12 ZZO 1019,6 10 0,0
23.11.2017 12:00:00 17,0 10,1 17,8 11 6 19 10 ZZO 1019,8 10 0,0
23.11.2017 11:00:00 15,7 8,7 17,1 9 5 19 10 O 1020,2 10 0,0
23.11.2017 10:00:00 14,6 8,5 - 11 6 - - ONO 1019,8 10 -
23.11.2017 09:00:00 11,7 7,8 9,0 13 7 24 13 ONO 1019,3 10 0,0
23.11.2017 08:00:00 10,6 7,7 8,9 13 7 22 12 O 1019,0 10 0,0
23.11.2017 07:00:00 10,6 7,5 9,0 13 7 28 15 O 1018,9 10 0,0
23.11.2017 06:00:00 11,6 7,7 11,0 16 9 26 14 O 1018,5 10 0,0
23.11.2017 05:00:00 11,8 8,1 11,2 11 6 21 11 ONO 1018,7 10 0,0
23.11.2017 04:00:00 11,7 7,8 10,8 9 5 19 10 ONO 1018,5 10 0,0
23.11.2017 03:00:00 11,7 7,6 11,2 9 5 21 11 O 1018,5 10 0,0
23.11.2017 02:00:00 11,9 7,8 11,4 15 8 27 14 O 1018,1 10 0,0
23.11.2017 01:00:00 12,9 8,2 12,5 22 12 34 18 O 1017,9 10 0,0
23.11.2017 00:00:00 13,1 8,4 12,3 16 9 27 15 OZO 1018,0 10 0,0
22.11.2017 23:00:00 13,1 8,6 12,2 13 7 20 11 OZO 1018,2 10 0,0
22.11.2017 22:00:00 13,0 8,5 12,3 11 6 21 11 OZO 1018,2 10 0,0
22.11.2017 21:00:00 13,2 8,5 12,6 9 5 13 7 O 1018,1 10 0,0
22.11.2017 20:00:00 13,6 8,0 12,9 8 4 17 9 OZO 1018,0 10 0,0
22.11.2017 19:00:00 14,9 8,6 14,4 8 4 17 9 ZO 1017,7 10 0,0
22.11.2017 18:00:00 15,1 8,1 14,6 8 4 16 9 OZO 1017,6 10 0,0
22.11.2017 17:00:00 15,8 8,0 15,4 9 5 23 13 OZO 1017,1 10 0,0
22.11.2017 16:00:00 17,1 8,8 17,0 11 6 26 14 OZO 1017,3 10 0,0
22.11.2017 15:00:00 16,6 9,5 17,1 13 7 25 13 ZO 1017,4 10 0,0
22.11.2017 14:00:00 16,6 10,0 17,7 13 7 22 12 ZZO 1017,8 10 0,0
22.11.2017 13:00:00 16,9 9,8 19,0 13 7 23 13 ZO 1018,2 10 0,0
22.11.2017 12:00:00 16,8 9,5 18,3 13 7 23 12 ZO 1018,7 10 0,0
22.11.2017 11:00:00 14,3 5,9 14,2 13 7 21 11 NO 1019,3 10 0,0
22.11.2017 10:00:00 10,6 5,1 7,4 13 7 18 10 ONO 1019,4 10 0,0
22.11.2017 09:00:00 7,3 4,4 3,8 9 5 14 8 ONO 1019,6 10 0,0
22.11.2017 08:00:00 6,1 3,3 2,7 5 3 14 7 ONO 1019,3 10 0,0
22.11.2017 07:00:00 5,4 3,1 2,8 5 3 19 10 ONO 1019,2 54 0,0
22.11.2017 06:00:00 5,6 3,3 3,2 11 6 18 10 ONO 1019,2 10 0,0
22.11.2017 05:00:00 6,1 3,9 3,0 8 4 16 9 ONO 1019,5 10 0,0
22.11.2017 04:00:00 5,8 3,8 3,1 9 5 14 7 ONO 1019,6 10 0,0
22.11.2017 03:00:00 6,2 4,2 3,3 4 2 11 6 - 1020,0 10 0,0
22.11.2017 02:00:00 5,8 4,1 2,6 4 2 8 4 - 1019,9 10 0,0
22.11.2017 01:00:00 5,1 3,4 1,6 4 2 6 3 NO 1020,1 10 0,0
22.11.2017 00:00:00 5,3 3,8 2,7 4 2 6 4 NO 1020,1 10 0,0
21.11.2017 23:00:00 5,1 3,4 3,2 4 2 9 5 ONO 1020,0 10 0,0
21.11.2017 22:00:00 5,0 2,9 3,3 5 3 10 5 ONO 1020,1 10 0,0
21.11.2017 21:00:00 5,4 2,4 3,6 4 2 10 5 ONO 1020,2 10 0,0
21.11.2017 20:00:00 6,0 2,5 4,1 5 3 7 4 NO 1020,2 10 0,0
21.11.2017 19:00:00 7,3 2,6 4,3 2 1 9 5 - 1019,7 10 0,0
21.11.2017 18:00:00 12,1 4,1 9,0 4 2 14 8 Z 1018,9 10 0,0
21.11.2017 17:00:00 16,2 3,6 12,5 4 2 10 5 - 1018,0 10 0,0
21.11.2017 16:00:00 18,6 3,6 20,5 4 2 12 6 NW 1017,9 10 0,0
21.11.2017 15:00:00 19,7 3,4 22,5 0 0 11 6 N 1018,2 10 0,0
21.11.2017 14:00:00 17,6 3,1 20,5 11 6 23 12 NW 1018,8 10 0,0
21.11.2017 13:00:00 15,0 2,8 17,1 5 3 29 15 - 1019,7 10 0,0
21.11.2017 12:00:00 13,3 1,9 14,6 22 12 35 19 N 1020,4 10 0,0
21.11.2017 11:00:00 11,4 1,1 13,6 15 8 23 12 N 1020,8 10 0,0
21.11.2017 10:00:00 8,6 0,6 4,4 5 3 16 9 - 1020,6 10 0,0
21.11.2017 09:00:00 4,4 -0,2 3,6 8 4 18 10 NNW 1020,9 10 -
21.11.2017 08:00:00 5,4 0,0 3,8 11 6 22 12 NW 1020,2 10 0,0
21.11.2017 07:00:00 5,1 0,1 3,7 15 8 24 13 NNW 1019,9 40 0,0
21.11.2017 06:00:00 5,1 -0,1 2,3 16 9 23 13 N 1020,0 10 0,0
21.11.2017 05:00:00 4,9 -0,1 2,0 11 6 19 11 N 1020,0 10 0,0
21.11.2017 04:00:00 4,6 -0,2 1,9 8 4 15 8 NNW 1020,0 10 0,0
21.11.2017 03:00:00 5,4 -0,4 2,0 4 2 12 6 - 1020,3 10 0,0
21.11.2017 02:00:00 5,9 -0,6 3,5 5 3 18 10 NNO 1020,1 10 0,0
21.11.2017 01:00:00 7,6 -0,9 6,5 9 5 17 9 N 1020,2 10 0,0
21.11.2017 00:00:00 8,1 -1,2 5,6 13 7 22 12 N 1020,4 10 0,0
20.11.2017 23:00:00 8,6 -1,3 6,8 5 3 26 14 - 1020,1 10 0,0
20.11.2017 22:00:00 9,1 -1,9 6,7 8 4 29 16 NNW 1020,4 10 0,0
20.11.2017 21:00:00 8,9 -1,3 5,7 15 8 27 15 N 1020,2 10 0,0
20.11.2017 20:00:00 9,3 -2,0 5,8 5 3 13 7 - 1020,2 10 0,0
20.11.2017 19:00:00 10,7 -3,8 8,6 5 3 19 10 WNW 1020,4 10 0,0
20.11.2017 18:00:00 11,8 -2,8 8,2 8 4 18 10 W 1020,2 10 0,0
20.11.2017 17:00:00 12,0 0,1 10,7 5 3 16 9 W 1020,3 10 0,0
20.11.2017 16:00:00 13,5 0,8 16,4 9 5 21 11 WNW 1020,2 10 0,0
20.11.2017 15:00:00 14,1 1,7 17,0 13 7 21 11 NNW 1020,3 10 0,0
20.11.2017 14:00:00 13,9 1,5 16,3 15 8 24 13 NNW 1021,0 10 0,0
20.11.2017 13:00:00 12,8 1,8 15,2 18 10 26 14 NNW 1021,4 10 0,0
20.11.2017 12:00:00 11,9 2,1 13,2 16 9 29 16 NNW 1022,1 10 0,0
20.11.2017 11:00:00 10,1 1,7 11,1 24 13 34 18 NNW 1022,4 10 0,0
20.11.2017 10:00:00 8,8 1,5 7,1 21 11 35 19 N 1022,2 10 0,0
20.11.2017 09:00:00 7,3 1,8 5,1 15 8 24 13 NNW 1021,8 10 0,0
20.11.2017 08:00:00 6,1 1,4 4,4 9 5 25 13 NNW 1021,2 10 0,0
20.11.2017 07:00:00 6,6 1,7 4,4 9 5 30 16 NNW 1020,5 10 0,0
20.11.2017 06:00:00 6,8 1,7 5,2 5 3 44 24 - 1020,2 10 0,0
20.11.2017 05:00:00 7,7 2,4 5,4 11 6 31 17 NW 1020,0 10 0,0
20.11.2017 04:00:00 8,0 2,0 6,7 11 6 38 21 NNW 1019,9 10 0,0
20.11.2017 03:00:00 8,4 2,6 6,4 15 8 28 15 NNW 1019,6 10 0,0
20.11.2017 02:00:00 8,6 3,4 7,1 9 5 45 24 N 1019,7 10 0,0
20.11.2017 01:00:00 9,2 3,6 8,5 22 12 82 45 N 1019,4 10 0,0
20.11.2017 00:00:00 9,8 3,5 9,1 50 27 77 42 NNW 1017,9 10 0,0
19.11.2017 23:00:00 9,5 3,9 8,9 37 20 64 34 NNW 1018,5 10 0,0
19.11.2017 22:00:00 10,1 4,2 9,2 39 21 59 32 NNW 1018,5 10 0,0
19.11.2017 21:00:00 10,0 4,4 9,2 41 22 63 34 NNW 1018,1 10 0,0
19.11.2017 20:00:00 10,0 4,4 9,3 29 16 55 30 NNW 1018,4 10 0,0
19.11.2017 19:00:00 10,6 4,5 9,8 27 15 50 27 NW 1017,9 60 0,0
19.11.2017 18:00:00 11,3 4,5 10,7 22 12 64 34 NW 1017,6 10 0,0
19.11.2017 17:00:00 12,4 4,8 11,9 16 9 64 35 WNW 1017,1 10 0,0
19.11.2017 16:00:00 13,5 4,6 15,1 28 15 75 40 NNW 1017,4 10 0,0
19.11.2017 15:00:00 14,3 5,1 16,0 39 21 69 37 NNW 1016,8 10 0,0
19.11.2017 14:00:00 14,8 4,5 17,1 26 14 51 27 NW 1016,8 10 0,0
19.11.2017 13:00:00 14,1 3,8 15,8 18 10 42 23 WNW 1017,4 10 0,0
19.11.2017 12:00:00 12,2 1,8 13,2 21 11 53 29 WNW 1018,0 10 0,0
19.11.2017 11:00:00 10,5 1,0 10,5 18 10 53 28 NW 1018,1 10 0,0
19.11.2017 10:00:00 8,6 0,3 6,7 24 13 51 28 NW 1018,1 10 0,0
19.11.2017 09:00:00 6,6 -0,2 4,7 9 5 32 17 - 1018,5 10 0,0
19.11.2017 08:00:00 5,7 -0,6 4,8 9 5 32 17 WZW 1018,2 10 0,0
19.11.2017 07:00:00 5,9 -0,8 4,4 9 5 41 22 WNW 1017,9 10 0,0
19.11.2017 06:00:00 5,4 -0,9 4,5 18 10 51 28 NNW 1017,8 10 0,0
19.11.2017 05:00:00 5,5 -0,8 3,3 29 16 52 28 NNW 1017,4 10 0,0
19.11.2017 04:00:00 4,5 -0,5 2,2 8 4 26 14 - 1018,0 10 0,0
19.11.2017 03:00:00 5,0 -0,4 3,7 11 6 37 20 NW 1018,8 10 0,0
19.11.2017 02:00:00 5,1 -0,3 4,1 13 7 33 18 NW 1018,9 10 0,0
19.11.2017 01:00:00 5,2 0,0 3,7 18 10 32 17 N 1019,2 10 0,0
19.11.2017 00:00:00 5,1 -0,1 3,4 9 5 29 16 NNW 1019,6 10 0,0
18.11.2017 23:00:00 6,0 0,1 5,0 5 3 42 23 - 1019,8 10 0,0
18.11.2017 22:00:00 6,5 0,4 5,2 28 15 41 22 NNW 1019,2 10 0,0
18.11.2017 21:00:00 6,9 0,6 5,8 16 9 33 18 NNW 1019,5 10 0,0
18.11.2017 20:00:00 7,2 0,8 5,2 13 7 35 19 NNW 1019,4 10 0,0
18.11.2017 19:00:00 7,8 1,4 6,9 9 5 47 25 - 1019,3 10 0,0
18.11.2017 18:00:00 8,5 1,4 7,9 26 14 50 27 NNW 1018,7 10 0,0
18.11.2017 17:00:00 9,2 2,1 8,8 28 15 50 27 NNW 1018,5 10 0,0

tt = temperatuur
td = dauwpunt
tt 5cm = temperatuur 5cm
ff = windsnelheid
fx = windstoten
dd = windrichting
ppp = luchtdruk
vv = zicht
rr = neerslag

Weerstations in de omgeving